map of SBPR home
Great Circle Mapper logo
SBPR - Airport
Location
City:  Belo Horizonte, Minas Gerais, Brazil
Name:Carlos Prates
ICAO:SBPR

Details
Type:Airport (Aerodrome, Airfield)
Latitude:1954'33"S (-19.909249)
Longitude:4359'27"W (-43.990749)
Datum:WGS 1984
Elevation:3044 ft (928 m)
Variation:22.56W (WMM2015 magnetic declination)
-0.09 annual change
Runways:1
Longest:3035 × 59 ft (925 × 18 m), paved

Time
Time Zone:UTC-3 (DST-2)
Local Time:

Weather
METAR:SBPR 281700Z 07002KT 9999 SCT025 26/13 Q1022

Related Locations
Nearby:
Farthest:IWO: 11961 mi / 19249 km
Iwo Jima [Iwo Jima AB], Iwo Jima Island, JP

Find:

   beyond  
but within

Other Information
Maps:
NOTAMs:
Links:
Sources:

  
flag of Brazil
flag of Minas Gerais
  

Sectional Chart

Flight Planning
at skyvector.com

Satellite Image

Google Maps Satellite view

 

Copyright © 2004-2015 Karl L. Swartz. All rights reserved.
The Great Circle Mapper name and logo are trademarks of the Great Circle Mapper.
All other trademarks mentioned herein belong to their respective owners.
Please see credits for attibutions and further copyright information.

  Follow gcmap on Facebook Follow gcmap on Twitter Follow gcmap on Google+

hCard Microformat

Geo Microformat